Meteo Giornale » Osservazioni meteo Pakistan » Lahore
ore: 00:00 - Osservazioni Meteo Lahore
Lat. 31° 31' N Lon. 74° 24' E Alt. 216 metri s.l.m.
31 °C
Caligine
Temp. 24 Ore
29 °C
37 °C
Sud-Ovest
7.4 Km/h
Dew point 25 °C
Umidità 70 %
Visibilità 4 Km
Il sole sorge alle ore 05:38
Il sole tramonta alle ore 18:26
| Data e Ora | Cielo e Fenomeni | T °C | DP °C | Um. % | Pres. hPa | Vis. km | Vento km/h | |
|---|---|---|---|---|---|---|---|---|
| Oggi h: 00:00 | Caligine | 31 | 25 | 70 | 1002 | 4 | SO 7.4 | |
| Ieri h: 23:30 | Caligine | 31 | 25 | 70 | 1002 | 4 | S/SO 11.1 | |
| Ieri h: 23:00 | Caligine | 31 | 25 | 70 | 1002 | 4 | S/SO 7.4 | |
| Ieri h: 22:30 | Caligine | 31 | 25 | 70 | 1002 | 4 | SO 7.4 | |
| Ieri h: 22:00 | Caligine | 31 | 25 | 70 | 1002 | 4 | N 5.5 | |
| Ieri h: 21:30 | Caligine | 31 | 24 | 66 | 1002 | 4 | SO 9.3 | |
| Ieri h: 21:00 | Caligine | 32 | 24 | 62 | 1002 | 4 | S/SO 7.4 | |
| Ieri h: 20:30 | Caligine | 33 | 25 | 62 | 1001 | 5 | SO 7.4 | |
| Ieri h: 20:00 | Caligine | 33 | 25 | 62 | 1001 | 5 | O/SO 7.4 | |
| Ieri h: 19:30 | Caligine | 33 | 25 | 62 | 1001 | 5 | N 3.7 | |
| Ieri h: 19:00 | Caligine | 34 | 24 | 56 | 1000 | 5 | N 5.5 | |
| Ieri h: 18:30 | Nuvoloso | 35 | 25 | 56 | 1000 | 6 | O/NO 7.4 | |
| Ieri h: 18:00 | Nuvoloso | 35 | 25 | 56 | 1000 | 6 | N 5.5 | |
| Ieri h: 17:30 | Nuvoloso | 36 | 25 | 53 | 1000 | 6 | N 5.5 | |
| Ieri h: 17:00 | Nuvoloso | 36 | 25 | 53 | 1000 | 6 | O/NO 7.4 | |
| Ieri h: 16:30 | Nuvoloso | 37 | 24 | 47 | 1000 | 6 | O 7.4 | |
| Ieri h: 16:00 | Nuvoloso | 37 | 24 | 47 | 1000 | 6 | O/NO 7.4 | |
| Ieri h: 15:30 | Nuvoloso | 37 | 24 | 47 | 1000 | 6 | O 7.4 | |
| Ieri h: 15:00 | Nuvoloso | 36 | 24 | 50 | 1001 | 6 | O/SO 7.4 | |
| Ieri h: 14:30 | Nuvoloso | 36 | 23 | 47 | 1001 | 6 | E/SE 11.1 | |
| Ieri h: 14:00 | Nuvoloso | 36 | 23 | 47 | 1001 | 6 | N 3.7 | |
| Ieri h: 13:30 | Nuvoloso | 35 | 23 | 49 | 1002 | 6 | O/SO 7.4 | |
| Ieri h: 13:00 | Nuvoloso | 35 | 23 | 49 | 1002 | 6 | N 3.7 | |
| Ieri h: 12:30 | Poco Nuvoloso | 35 | 23 | 49 | 1002 | 6 | O/NO 7.4 | |
| Ieri h: 12:00 | Poco Nuvoloso | 35 | 23 | 49 | 1003 | 6 | O 7.4 | |
| Ieri h: 11:30 | Caligine | 34 | 23 | 52 | 1003 | 5 | O 9.3 | |
| Ieri h: 11:00 | Caligine | 34 | 23 | 52 | 1003 | 5 | NO 11.1 | |
| Ieri h: 10:30 | Caligine | 34 | 23 | 52 | 1003 | 5 | O/NO 14.8 | |
| Ieri h: 10:00 | Caligine | 34 | 24 | 56 | 1003 | 5 | NO 7.4 | |
| Ieri h: 09:30 | Caligine | 33 | 25 | 62 | 1003 | 5 | O 7.4 | |
| Ieri h: 09:00 | Caligine | 32 | 25 | 66 | 1003 | 5 | N 3.7 | |
| Ieri h: 08:30 | Caligine | 32 | 26 | 70 | 1002 | 4 | S/SO 11.1 | |
| Ieri h: 08:00 | Caligine | 31 | 26 | 74 | 1002 | 4 | SO 11.1 | |
| Ieri h: 07:30 | Caligine | 30 | 26 | 79 | 1002 | 4 | S/SO 9.3 | |
| Ieri h: 07:00 | Caligine | 29 | 26 | 83 | 1002 | 4 | S 13 | |
| Ieri h: 06:30 | Caligine | 29 | 26 | 83 | 1002 | 4 | S 9.3 | |
| Ieri h: 06:00 | Caligine | 29 | 26 | 83 | 1002 | 4 | S 13 | |
| Ieri h: 05:30 | Caligine | 29 | 26 | 83 | 1002 | 4 | S/SE 11.1 | |
| Ieri h: 05:00 | Caligine | 29 | 26 | 83 | 1002 | 4 | SE 7.4 | |
| Ieri h: 04:30 | Caligine | 29 | 26 | 83 | 1001 | 4 | S 11.1 | |
| Ieri h: 04:00 | Caligine | 29 | 26 | 83 | 1002 | 4 | S 9.3 | |
| Ieri h: 03:30 | Caligine | 29 | 25 | 79 | 1001 | 4 | S 9.3 | |
| Ieri h: 03:00 | Caligine | 30 | 25 | 74 | 1001 | 4 | S/SE 7.4 | |
| Ieri h: 02:30 | Caligine | 30 | 26 | 79 | 1001 | 4 | S/SE 7.4 | |
| Ieri h: 02:00 | Caligine | 30 | 26 | 79 | 1002 | 4 | S 11.1 | |
| Ieri h: 01:30 | Caligine | 30 | 26 | 79 | 1002 | 4 | N 3.7 | |
| Ieri h: 01:00 | Caligine | 31 | 26 | 74 | 1002 | 4 | S 7.4 | |



